CW7986 Weather Reports


Display with metric or nautical units.
time (UTC)temp
F
wind
direction
speed
MPH
gust
MPH
rain 1hr
in
rain 24hr
in
rain mn
in
humidity
%
barometer
mb
20260904184005 92 258 3.0 8.0 0.00 0.11 0.11 69 1013.7
20260904183504 93 239 2.0 5.0 0.00 0.11 0.11 68 1013.7
20260904183004 93 238 2.0 6.0 0.00 0.11 0.11 67 1013.8
20260904182504 93 253 3.0 9.0 0.00 0.11 0.11 67 1013.8
20260904182003 92 262 3.0 9.0 0.00 0.11 0.11 67 1013.8
20260904181504 92 259 3.0 9.0 0.00 0.11 0.11 69 1013.8
20260904181024 92 263 3.0 9.0 0.00 0.11 0.11 68 1014.0
20260904180504 92 263 3.0 9.0 0.00 0.11 0.11 68 1014.0
20260904180004 92 240 1.0 5.0 0.00 0.11 0.11 66 1014.1
20260904175524 93 244 1.0 4.0 0.00 0.11 0.11 68 1014.0
20260904175026 91 260 2.0 7.0 0.00 0.11 0.11 70 1014.1
20260904174504 91 262 3.0 11.0 0.00 0.11 0.11 70 1014.2
20260904174004 90 269 3.0 11.0 0.00 0.11 0.11 69 1014.3
20260904173525 90 269 4.0 9.0 0.00 0.11 0.11 71 1014.3
20260904173004 89 265 3.0 9.0 0.00 0.11 0.11 71 1014.3
20260904172504 90 263 2.0 6.0 0.00 0.11 0.11 71 1014.2
20260904172004 90 266 2.0 6.0 0.00 0.11 0.11 70 1014.3
20260904171504 90 262 2.0 6.0 0.00 0.11 0.11 68 1014.3
20260904171003 91 249 1.0 6.0 0.00 0.11 0.11 68 1014.5
20260904170525 91 244 2.0 9.0 0.00 0.11 0.11 68 1014.6
20260904170003 92 241 3.0 9.0 0.00 0.11 0.11 67 1014.6
20260904165503 93 237 2.0 7.0 0.00 0.11 0.11 65 1014.5
20260904165004 92 244 2.0 7.0 0.00 0.11 0.11 69 1014.4
20260904164506 92 223 2.0 7.0 0.00 0.11 0.11 68 1014.5
20260904164004 93 201 2.0 7.0 0.00 0.11 0.11 69 1014.6
20260904163504 92 199 2.0 7.0 0.00 0.12 0.11 70 1014.7
20260904163004 91 249 3.0 7.0 0.00 0.12 0.11 70 1014.8
20260904162504 90 268 3.0 10.0 0.00 0.14 0.11 73 1014.8
20260904162004 90 271 2.0 10.0 0.00 0.18 0.11 70 1014.8
20260904161504 91 269 2.0 11.0 0.00 0.42 0.11 70 1014.8
20260904161004 91 251 3.0 11.0 0.00 0.68 0.11 71 1014.8
20260904160504 93 233 2.0 6.0 0.00 0.76 0.11 66 1014.8
20260904160004 92 264 2.0 5.0 0.00 0.76 0.11 72 1014.8
20260904155504 91 257 2.0 5.0 0.00 0.76 0.11 71 1014.9
20260904155004 92 242 2.0 7.0 0.00 0.76 0.11 71 1014.9
20260904154504 91 259 2.0 7.0 0.00 0.76 0.11 70 1014.9
20260904154004 91 221 3.0 9.0 0.00 0.76 0.11 70 1014.9
20260904153505 92 189 2.0 9.0 0.00 0.76 0.11 67 1014.9
20260904153004 92 188 2.0 8.0 0.00 0.76 0.11 67 1014.8
20260904152504 92 206 2.0 8.0 0.00 0.76 0.11 68 1014.8
20260904152004 90 257 2.0 6.0 0.00 0.76 0.11 70 1014.8
20260904151504 90 268 2.0 7.0 0.00 0.76 0.11 73 1014.8
20260904151004 90 274 2.0 7.0 0.00 0.76 0.11 73 1014.8
20260904150504 90 192 3.0 7.0 0.00 0.76 0.11 73 1014.7
20260904150004 90 169 3.0 7.0 0.00 0.76 0.11 69 1014.7
20260904145504 91 162 2.0 6.0 0.00 0.76 0.11 69 1014.5
20260904145004 91 155 3.0 5.0 0.00 0.76 0.11 71 1014.4
20260904144525 90 164 4.0 7.0 0.00 0.76 0.11 72 1014.5
20260904144025 90 164 3.0 7.0 0.00 0.76 0.11 72 1014.4
20260904143506 89 145 4.0 7.0 0.00 0.76 0.11 75 1014.3
20260904143004 89 149 4.0 9.0 0.00 0.76 0.11 75 1014.3
20260904142504 88 152 3.0 9.0 0.00 0.76 0.11 77 1014.3
20260904142004 88 148 3.0 7.0 0.00 0.76 0.11 77 1014.3
20260904141504 88 148 2.0 7.0 0.00 0.76 0.11 78 1014.3
20260904141004 88 146 2.0 4.0 0.00 0.76 0.11 79 1014.3
20260904140503 86 134 2.0 4.0 0.00 0.76 0.11 81 1014.3
20260904140004 85 130 2.0 4.0 0.00 0.76 0.11 82 1014.3
20260904135504 85 134 2.0 4.0 0.00 0.76 0.11 82 1014.2
20260904135004 84 133 2.0 4.0 0.00 0.76 0.11 82 1014.2
20260904134504 84 141 2.0 5.0 0.00 0.76 0.11 80 1014.2
20260904134004 85 141 3.0 5.0 0.00 0.76 0.11 78 1014.2
20260904133503 85 135 2.0 5.0 0.00 0.76 0.11 79 1014.2
20260904133004 84 136 2.0 5.0 0.00 0.76 0.11 79 1014.2
20260904132504 85 140 2.0 5.0 0.00 0.76 0.11 78 1014.1
20260904132004 85 137 2.0 5.0 0.00 0.76 0.11 80 1014.1
20260904131504 84 142 2.0 5.0 0.01 0.76 0.11 79 1013.9
20260904131025 84 145 2.0 5.0 0.01 0.76 0.11 80 1013.8
20260904130504 83 142 1.0 4.0 0.01 0.76 0.11 83 1013.7
20260904130004 83 137 1.0 3.0 0.03 0.76 0.11 85 1013.7
20260904125504 82 136 1.0 3.0 0.03 0.76 0.11 87 1013.6
20260904125004 81 136 1.0 3.0 0.03 0.76 0.11 88 1013.7
20260904124504 81 136 0.0 3.0 0.03 0.76 0.11 89 1013.7
20260904124004 80 147 1.0 4.0 0.03 0.76 0.11 90 1013.7
20260904123525 80 144 2.0 5.0 0.03 0.76 0.11 90 1013.7
20260904123004 80 134 2.0 5.0 0.03 0.76 0.11 90 1013.7
20260904122504 80 129 2.0 7.0 0.03 0.76 0.11 90 1013.7
20260904122003 80 135 2.0 7.0 0.03 0.76 0.11 90 1013.7
20260904121504 80 130 1.0 3.0 0.02 0.75 0.10 90 1013.7
20260904121004 80 134 2.0 4.0 0.02 0.75 0.10 90 1013.7
20260904120504 80 137 2.0 4.0 0.02 0.75 0.10 90 1013.7
20260904120025 80 130 1.0 3.0 0.00 0.73 0.08 90 1013.7
20260904115504 80 111 1.0 4.0 0.00 0.73 0.08 90 1013.6
20260904115004 80 92 1.0 4.0 0.00 0.73 0.08 90 1013.5
20260904114504 80 97 0.0 3.0 0.01 0.73 0.08 90 1013.4
20260904114004 79 101 0.0 3.0 0.01 0.73 0.08 90 1013.3
20260904113504 79 0 0.0 0.0 0.01 0.73 0.08 90 1013.2
20260904113004 79 0 0.0 0.0 0.01 0.73 0.08 90 1013.2
20260904112503 79 0 0.0 0.0 0.01 0.73 0.08 90 1013.1
20260904112003 79 138 0.0 1.0 0.01 0.73 0.08 90 1013.1
20260904111503 79 148 0.0 2.0 0.01 0.73 0.08 90 1013.0
20260904111004 79 155 1.0 2.0 0.01 0.73 0.08 89 1013.1
20260904110503 79 159 1.0 5.0 0.02 0.73 0.08 89 1013.2
20260904110004 79 142 2.0 5.0 0.03 0.73 0.08 89 1013.1
20260904105504 79 118 1.0 4.0 0.06 0.73 0.08 89 1013.2
20260904105004 79 129 1.0 4.0 0.08 0.73 0.08 89 1013.1
20260904104504 79 286 1.0 3.0 0.07 0.72 0.07 89 1013.1
20260904104010 79 294 1.0 3.0 0.07 0.72 0.07 89 1013.0
20260904103504 79 294 0.0 2.0 0.07 0.72 0.07 89 1012.9
20260904103004 79 294 0.0 2.0 0.07 0.72 0.07 89 1012.7
20260904102504 79 294 0.0 2.0 0.07 0.72 0.07 89 1012.8
20260904102004 79 294 0.0 1.0 0.07 0.72 0.07 89 1012.7
20260904101503 79 294 0.0 1.0 0.07 0.72 0.07 89 1012.5
20260904101004 79 289 1.0 4.0 0.07 0.72 0.07 89 1012.5
20260904100504 79 287 2.0 4.0 0.06 0.71 0.07 89 1012.6
20260904100004 79 284 1.0 4.0 0.05 0.70 0.05 89 1012.7
20260904095504 79 283 1.0 4.0 0.02 0.67 0.02 89 1012.6
20260904095004 79 0 0.0 0.0 0.00 0.65 0.00 89 1012.6
20260904094504 79 0 0.0 0.0 0.00 0.65 0.00 89 1012.5
20260904094004 78 0 0.0 0.0 0.00 0.65 0.00 89 1012.4
20260904093526 78 0 0.0 0.0 0.00 0.65 0.00 89 1012.3
20260904093004 78 0 0.0 0.0 0.00 0.65 0.00 89 1012.2
20260904092504 78 0 0.0 0.0 0.00 0.65 0.00 89 1012.2
20260904092004 78 0 0.0 0.0 0.00 0.65 0.00 89 1012.1
20260904091524 78 0 0.0 0.0 0.00 0.65 0.00 89 1012.1
20260904091025 78 0 0.0 0.0 0.00 0.65 0.00 89 1011.9
20260904090503 78 0 0.0 0.0 0.00 0.65 0.00 89 1012.0
20260904090004 78 0 0.0 0.0 0.00 0.65 0.00 89 1012.0
20260904085503 78 0 0.0 0.0 0.00 0.65 0.00 89 1012.1
20260904085004 78 0 0.0 0.0 0.00 0.65 0.00 89 1012.2
20260904084503 78 0 0.0 0.0 0.00 0.65 0.00 89 1012.2
20260904084003 78 0 0.0 0.0 0.00 0.65 0.00 88 1012.2
20260904083504 78 0 0.0 0.0 0.00 0.65 0.00 88 1012.1
20260904083004 78 0 0.0 0.0 0.00 0.65 0.00 88 1012.2
20260904082503 78 0 0.0 0.0 0.00 0.65 0.00 88 1012.2
20260904082004 78 96 0.0 1.0 0.00 0.65 0.00 88 1012.2
20260904081503 78 95 1.0 2.0 0.00 0.65 0.00 88 1012.1
20260904081004 79 95 1.0 2.0 0.00 0.65 0.00 88 1012.1
20260904080525 78 95 0.0 2.0 0.00 0.65 0.00 88 1012.2
20260904080004 78 95 0.0 3.0 0.00 0.65 0.00 88 1012.2
20260904075504 78 95 0.0 3.0 0.00 0.65 0.00 88 1012.1
20260904075003 79 93 0.0 2.0 0.00 0.65 0.00 88 1012.0
20260904074524 78 0 0.0 0.0 0.00 0.65 0.00 88 1012.0
20260904074025 78 96 0.0 3.0 0.00 0.65 0.00 88 1012.1
20260904073504 78 99 0.0 3.0 0.00 0.65 0.00 88 1012.0
20260904073004 78 122 1.0 3.0 0.00 0.65 0.00 88 1011.9
20260904072503 79 117 1.0 3.0 0.00 0.65 0.00 88 1012.1
20260904072025 79 85 0.0 2.0 0.00 0.65 0.00 88 1012.0
20260904071504 79 0 0.0 0.0 0.00 0.65 0.00 88 1012.1
20260904071004 79 0 0.0 0.0 0.00 0.65 0.00 88 1012.1
20260904070504 79 0 0.0 0.0 0.00 0.65 0.00 88 1012.2
20260904070004 79 0 0.0 0.0 0.00 0.65 0.00 88 1012.2
20260904065504 79 0 0.0 0.0 0.00 0.65 0.00 88 1012.2
20260904065004 79 0 0.0 0.0 0.00 0.65 0.00 88 1012.2
20260904064505 79 0 0.0 0.0 0.00 0.65 0.00 88 1012.2
20260904064004 79 0 0.0 0.0 0.00 0.65 0.00 88 1012.3
20260904063504 79 0 0.0 0.0 0.00 0.65 0.00 87 1012.3
20260904063003 79 0 0.0 0.0 0.00 0.65 0.00 87 1012.3
20260904062503 79 85 0.0 1.0 0.00 0.65 0.00 87 1012.3
20260904062004 79 85 0.0 2.0 0.00 0.65 0.00 87 1012.2
20260904061505 79 85 0.0 2.0 0.00 0.65 0.00 87 1012.2
20260904061026 79 64 0.0 2.0 0.00 0.65 0.00 87 1012.2
20260904060503 79 69 1.0 4.0 0.00 0.65 0.00 87 1012.3
20260904060004 79 84 1.0 4.0 0.00 0.65 0.00 87 1012.3
20260904055524 79 93 0.0 4.0 0.00 0.65 0.00 87 1012.3
20260904055003 79 0 0.0 0.0 0.00 0.65 0.00 87 1012.4
20260904054504 79 94 0.0 3.0 0.00 0.65 0.00 87 1012.4
20260904054003 79 102 1.0 3.0 0.00 0.65 0.00 87 1012.5
20260904053504 79 108 1.0 4.0 0.00 0.65 0.00 87 1012.6
20260904053003 79 102 1.0 5.0 0.00 0.65 0.00 87 1012.7
20260904052504 79 101 1.0 5.0 0.00 0.65 0.00 86 1012.7
20260904052024 79 109 1.0 3.0 0.00 0.65 0.00 86 1012.7
20260904051504 80 120 1.0 3.0 0.00 0.65 0.00 86 1012.7
20260904051003 80 136 0.0 3.0 0.00 0.65 0.00 86 1012.7
20260904050503 80 111 0.0 2.0 0.00 0.65 0.00 86 1012.7
20260904050024 80 109 0.0 2.0 0.00 0.65 0.00 86 1012.7
20260904045504 80 111 0.0 3.0 0.00 0.65 0.00 86 1012.7
20260904045004 80 122 0.0 3.0 0.00 0.65 0.00 86 1012.8
20260904044509 80 131 0.0 2.0 0.00 0.65 0.00 86 1012.8
20260904044003 80 109 1.0 4.0 0.00 0.65 0.00 86 1012.8
20260904043505 80 102 1.0 4.0 0.00 0.65 0.00 86 1012.9
20260904043005 80 94 1.0 3.0 0.00 0.65 0.00 86 1012.9
20260904042504 80 96 1.0 4.0 0.00 0.65 0.00 86 1012.9
20260904042003 80 101 1.0 4.0 0.00 0.65 0.00 86 1013.0
20260904041504 80 112 1.0 4.0 0.00 0.65 0.00 86 1013.1
20260904041004 80 111 1.0 3.0 0.00 0.65 0.00 86 1013.1
20260904040504 80 96 0.0 3.0 0.00 0.65 0.00 86 1013.1
20260904040025 80 102 1.0 5.0 0.00 0.65 0.00 86 1013.1
20260904035503 80 106 1.0 5.0 0.00 0.65 0.65 85 1013.1
20260904035003 80 104 0.0 5.0 0.00 0.65 0.65 85 1013.1
20260904034504 80 92 0.0 3.0 0.00 0.65 0.65 85 1013.0
20260904034003 80 102 1.0 4.0 0.00 0.65 0.65 85 1013.1
20260904033503 81 110 1.0 4.0 0.00 0.65 0.65 85 1013.1
20260904033004 81 106 1.0 6.0 0.00 0.65 0.65 85 1013.0
20260904032503 81 95 1.0 6.0 0.00 0.65 0.65 85 1013.0
20260904032003 81 90 1.0 5.0 0.00 0.65 0.65 85 1012.9
20260904031504 81 91 1.0 5.0 0.00 0.65 0.65 85 1012.8
20260904031004 81 90 1.0 5.0 0.00 0.65 0.65 85 1012.9
20260904030504 81 86 2.0 5.0 0.00 0.65 0.65 85 1012.9
20260904030004 81 85 1.0 3.0 0.00 0.65 0.65 84 1012.8
20260904025503 81 102 1.0 5.0 0.00 0.65 0.65 84 1012.8
20260904025004 81 118 1.0 5.0 0.00 0.65 0.65 84 1012.8
20260904024525 81 116 1.0 5.0 0.00 0.65 0.65 84 1012.7
20260904024005 82 109 1.0 4.0 0.00 0.65 0.65 84 1012.7
20260904023507 82 116 2.0 5.0 0.00 0.65 0.65 84 1012.7
20260904023004 82 111 1.0 5.0 0.00 0.65 0.65 84 1012.7
20260904022504 82 105 2.0 5.0 0.00 0.65 0.65 84 1012.7
20260904022003 82 114 2.0 5.0 0.00 0.65 0.65 83 1012.7
20260904021504 82 123 2.0 6.0 0.00 0.65 0.65 83 1012.7
20260904021005 82 123 2.0 6.0 0.00 0.65 0.65 83 1012.7
20260904020503 82 107 2.0 3.0 0.00 0.65 0.65 83 1012.7
20260904020004 82 111 1.0 3.0 0.00 0.65 0.65 83 1012.8
20260904015504 82 119 1.0 4.0 0.00 0.65 0.65 82 1012.8
20260904015004 82 119 2.0 4.0 0.00 0.65 0.65 82 1012.7
20260904014504 82 128 2.0 4.0 0.00 0.65 0.65 82 1012.7
20260904014004 82 119 1.0 4.0 0.00 0.65 0.65 82 1012.7
20260904013525 82 103 1.0 3.0 0.00 0.65 0.65 82 1012.7
20260904013004 82 91 1.0 4.0 0.00 0.65 0.65 81 1012.8
20260904012525 82 83 0.0 4.0 0.00 0.65 0.65 81 1012.7
20260904012004 82 0 0.0 0.0 0.00 0.65 0.65 81 1012.7
20260904011504 82 0 0.0 0.0 0.00 0.65 0.65 80 1012.7
20260904011003 82 0 0.0 0.0 0.00 0.65 0.65 80 1012.6
20260904010503 82 79 0.0 3.0 0.00 0.65 0.65 80 1012.5
20260904010004 82 79 0.0 3.0 0.00 0.65 0.65 80 1012.4
20260904005504 82 79 0.0 2.0 0.00 0.65 0.65 80 1012.3
20260904005003 82 79 0.0 2.0 0.00 0.65 0.65 79 1012.2
20260904004504 83 79 0.0 2.0 0.00 0.65 0.65 79 1012.3
20260904004004 83 0 0.0 0.0 0.00 0.65 0.65 79 1012.2
20260904003503 83 0 0.0 0.0 0.00 0.65 0.65 79 1012.2
20260904003003 83 80 0.0 1.0 0.00 0.65 0.65 78 1012.1
20260904002504 83 80 0.0 2.0 0.00 0.65 0.65 78 1012.1
20260904002003 83 80 1.0 3.0 0.00 0.65 0.65 78 1012.1
20260904001503 83 80 1.0 3.0 0.00 0.65 0.65 78 1012.1
20260904001004 84 70 1.0 4.0 0.00 0.65 0.65 77 1012.1
20260904000526 84 67 2.0 6.0 0.00 0.65 0.65 77 1012.1
20260904000004 84 68 2.0 6.0 0.00 0.65 0.65 76 1012.2
20260903235526 85 70 1.0 5.0 0.00 0.65 0.65 75 1012.1
20260903235004 86 75 1.0 3.0 0.00 0.65 0.65 75 1012.1
20260903234504 86 86 0.0 2.0 0.00 0.65 0.65 75 1012.2
20260903234004 86 227 0.0 1.0 0.00 0.65 0.65 76 1012.2
20260903233504 86 254 0.0 2.0 0.00 0.65 0.65 76 1012.1
20260903233003 86 265 0.0 2.0 0.00 0.65 0.65 75 1011.9
20260903232504 86 0 0.0 0.0 0.00 0.65 0.65 75 1012.1
20260903232025 86 0 0.0 0.0 0.00 0.65 0.65 75 1012.1
20260903231504 86 0 0.0 0.0 0.00 0.65 0.65 75 1012.1
20260903231003 86 270 0.0 3.0 0.00 0.65 0.65 75 1012.1
20260903230504 86 274 1.0 4.0 0.00 0.65 0.65 75 1012.0
20260903230003 86 271 0.0 4.0 0.00 0.65 0.65 75 1012.0
20260903225524 86 191 1.0 3.0 0.00 0.65 0.65 75 1012.0
20260903225025 86 259 1.0 4.0 0.00 0.65 0.65 76 1012.1
20260903224503 86 280 2.0 5.0 0.00 0.65 0.65 75 1012.0
20260903224004 86 275 2.0 6.0 0.00 0.65 0.65 75 1011.9
20260903223504 87 275 3.0 7.0 0.00 0.65 0.65 76 1011.8
20260903223004 87 274 2.0 7.0 0.00 0.65 0.65 75 1011.6
20260903222503 87 274 3.0 6.0 0.00 0.65 0.65 76 1011.5
20260903222004 87 272 3.0 6.0 0.00 0.65 0.65 75 1011.5
20260903221504 87 271 2.0 7.0 0.00 0.65 0.65 75 1011.5
20260903221003 87 272 2.0 7.0 0.00 0.65 0.65 74 1011.3
20260903220504 88 273 2.0 6.0 0.00 0.65 0.65 74 1011.2
20260903220025 88 272 2.0 7.0 0.00 0.65 0.65 73 1011.2
20260903215525 88 259 2.0 7.0 0.00 0.65 0.65 73 1011.3
20260903215004 89 255 2.0 5.0 0.00 0.66 0.65 74 1011.3
20260903214504 88 270 2.0 7.0 0.00 0.66 0.65 73 1011.2
20260903214026 89 271 3.0 7.0 0.00 0.67 0.65 73 1011.1
20260903213504 88 270 3.0 6.0 0.00 0.70 0.65 74 1011.1
20260903213004 88 258 2.0 6.0 0.00 0.79 0.65 74 1011.1
20260903212504 89 256 2.0 7.0 0.00 0.88 0.65 75 1011.1
20260903212004 88 268 3.0 9.0 0.00 0.88 0.65 72 1011.0
20260903211525 89 270 3.0 9.0 0.00 0.88 0.65 74 1010.8
20260903211004 88 270 3.0 9.0 0.00 0.88 0.65 74 1010.8
20260903210504 88 271 4.0 8.0 0.00 0.88 0.65 74 1010.8
20260903210025 87 270 5.0 9.0 0.00 0.88 0.65 76 1010.8
20260903205525 87 274 4.0 9.0 0.00 0.88 0.65 74 1010.8
20260903205004 88 275 4.0 9.0 0.00 0.88 0.65 75 1010.9
20260903204503 88 269 3.0 9.0 0.00 0.88 0.65 72 1011.0
20260903204004 90 272 4.0 10.0 0.00 0.88 0.65 74 1011.1
20260903203503 88 275 5.0 10.0 0.00 0.88 0.65 75 1011.2
20260903203025 88 273 5.0 10.0 0.00 0.88 0.65 75 1011.2
20260903202504 88 272 5.0 11.0 0.00 0.88 0.65 73 1011.5
20260903202025 88 273 5.0 11.0 0.00 0.88 0.65 75 1011.6
20260903201504 88 272 4.0 10.0 0.00 0.88 0.65 72 1011.6
20260903201004 89 270 3.0 8.0 0.00 0.88 0.65 72 1011.6
20260903200504 89 269 3.0 10.0 0.00 0.88 0.65 71 1011.6
20260903200004 89 268 3.0 10.0 0.00 0.88 0.65 75 1011.6
20260903195505 89 270 4.0 10.0 0.00 0.88 0.65 75 1011.7
20260903195004 88 272 5.0 10.0 0.00 0.88 0.65 74 1011.7
20260903194503 88 272 4.0 9.0 0.00 0.88 0.65 73 1011.6
20260903194004 88 270 3.0 9.0 0.00 0.88 0.65 73 1011.7
20260903193525 89 260 2.0 9.0 0.00 0.88 0.65 71 1011.8
20260903193004 89 206 1.0 3.0 0.00 0.88 0.65 74 1011.8
20260903192503 90 198 1.0 4.0 0.00 0.88 0.65 72 1011.8
20260903192004 90 201 1.0 4.0 0.00 0.88 0.65 71 1011.8
20260903191503 91 167 1.0 7.0 0.00 0.88 0.65 70 1012.0
20260903191004 91 181 2.0 7.0 0.00 0.88 0.65 70 1012.1
20260903190503 90 232 2.0 6.0 0.00 0.88 0.65 74 1012.1
20260903190004 89 255 3.0 9.0 0.00 0.88 0.65 74 1012.1
20260903185504 90 272 4.0 12.0 0.00 0.88 0.65 72 1012.2
20260903185004 88 272 4.0 12.0 0.00 0.88 0.65 72 1012.2
20260903184526 90 273 3.0 9.0 0.00 0.88 0.65 71 1012.2